[[{"header":{"parameterUnit":"m.s-1","parameterCategory":1,"la1":30.2991,"la2":30.254,"lo1":-89.0895,"lo2":-89.0444,"dy":0.0017,"dx":0.0017,"nx":28,"ny":28,"refTime":"2025-09-05T21:00:00:Z","depth":0,"parameterNumber":2,"parameterNumberName":"U-component_of_WINDS"},"data":[0,0,0,0,0,0,0,0,0,0,0,0,0,0,0,0,0,0,0,0,0,0,0,0,0,0,0,0,0,0,0,0,0,0,0,0,0,0,0,0,0,0,0,0,0,0,0,0,0,0,0,0,0,0,0,0,0,0,0.9602,0.9601,0,0.9566,0.9565,0.9565,0.9565,0.9565,0.9565,0.9566,0.9527,0.9525,0.9524,0,0,0,0,0,0,0,0,0,0,0,0,0,0.9669,0.9668,0.9602,0.9601,0.9601,0.9566,0.9565,0.9565,0.9564,0.9565,0.9566,0.9566,0.9527,0.9526,0.9524,0,0,0,0,0,0,0,0,0,0,0,0,0,0.9637,0.9668,0.9602,0.9596,0.9596,0.9566,0.9565,0.9564,0.9564,0.9565,0.9566,0.9566,0.9528,0.9526,0.9524,0.9496,0,0,0.9517,0.9516,0,0,0,0,0,0,0,0,0.9639,0.9635,0.9598,0.9597,0.9596,0.957,0.9575,0.9541,0.9564,0.9576,0.9566,0.9567,0.9541,0.9537,0.9529,0.9494,0.9492,0.9517,0.9515,0.9514,0.9514,0,0,0,0,0,0,0,0.9641,0.9636,0.9587,0.9597,0.9596,0.9596,0.9592,0.9568,0.9555,0.9575,0.9575,0.9571,0.954,0.9531,0.9528,0.9492,0.9517,0.9515,0.9513,0.9513,0.9433,0.9432,0,0,0,0,0,0,0.9645,0.9638,0.9588,0.9586,0.962,0.9594,0.959,0.9578,0.9555,0.9552,0.957,0.9571,0.9535,0.9531,0.9527,0.9493,0.9514,0.9512,0.9511,0.9434,0.9433,0.9432,0,0,0,0,0,0,0.9646,0.964,0.959,0.9612,0.9606,0.9592,0.9579,0.9577,0.9568,0.9551,0.9549,0.9564,0.9535,0.953,0.9504,0.9492,0.9511,0.9509,0.9435,0.9434,0.9433,0.9426,0,0,0,0,0,0,0.9648,0.9641,0.963,0.9612,0.9604,0.9568,0.9578,0.9575,0.9564,0.9565,0.9544,0.9542,0.9535,0.9507,0.9502,0.9489,0.9508,0.9436,0.9434,0.9433,0.9427,0.9424,0.9422,0,0,0,0,0,0.965,0.9629,0.963,0.9624,0.9591,0.9567,0.9563,0.9556,0.9563,0.9552,0.9542,0.9542,0.9494,0.9505,0.9498,0.9485,0.9437,0.9435,0.9433,0.9428,0.9425,0.9422,0,0,0,0,0,0,0.9645,0.9626,0.9627,0.9599,0.9585,0.9567,0.9553,0.9553,0.9536,0.9537,0.9529,0.9525,0.9499,0.9489,0.9501,0.9457,0.9466,0.9463,0.9464,0.9461,0.9459,0.9462,0.9506,0,0,0,0,0,0.9641,0.9624,0.9608,0.9585,0.9578,0.9567,0.9556,0.9553,0.9537,0.9531,0.9519,0.9503,0.9485,0.9473,0.9455,0.9426,0.9421,0.9414,0.9411,0.9409,0.9407,0.9391,0.9388,0.9426,0.9426,0.9426,0,0,0.9632,0.9619,0.9609,0.9584,0.9572,0.9554,0.9562,0.9542,0.9528,0.9528,0.9503,0.9493,0.9476,0.9448,0.9436,0.944,0.9395,0.9407,0.9406,0.9404,0.9389,0.9385,0.9382,0.9425,0.9425,0.9426,0,0,0.9606,0.9595,0.9575,0.9563,0.9546,0.9539,0.9535,0.9517,0.9511,0.9486,0.9486,0.9469,0.9437,0.9425,0.9414,0.9385,0.9385,0.938,0.9367,0.9352,0.9349,0.9346,0.9336,0.9332,0.9377,0.9377,0.9377,0,0.9596,0.9569,0.9564,0.9545,0.9534,0.9533,0.9513,0.9502,0.948,0.9472,0.9477,0.9438,0.9426,0.9396,0.9389,0.938,0.9375,0.9381,0.935,0.9347,0.9345,0.9335,0.9331,0.9377,0.9377,0.9377,0.9377,0,0.9558,0.954,0.9526,0.9505,0.9493,0.9473,0.9465,0.9452,0.945,0.9443,0.9418,0.9404,0.9383,0.9376,0.9373,0.9346,0.9349,0.9352,0.9361,0.9341,0.9331,0.9327,0.9376,0.9376,0.9376,0.9376,0,0,0.9527,0.9505,0.95,0.9491,0.9473,0.9458,0.9438,0.9419,0.9409,0.9394,0.9377,0.9351,0.9355,0.9343,0.9339,0.9326,0.9304,0.9331,0.933,0.9326,0.9273,0.927,0.9266,0.9304,0.9303,0.9302,0.9274,0,0.9499,0.9464,0.946,0.9429,0.9412,0.9412,0.9395,0.9382,0.9375,0.9359,0.9351,0.9333,0.9339,0.9332,0.9319,0.9309,0.9293,0.9311,0.9288,0.9287,0.9292,0.9261,0.9258,0.9232,0.9271,0.927,0.9269,0,0.9461,0.9446,0.9414,0.9399,0.9392,0.9377,0.9359,0.9345,0.933,0.9326,0.9313,0.9311,0.9291,0.9301,0.9272,0.9285,0.9275,0.9269,0.9268,0.9265,0.9277,0.9257,0.9223,0.9219,0.9264,0.9264,0.9264,0,0.9441,0.9413,0.9391,0.9383,0.9365,0.9355,0.9346,0.9333,0.9322,0.9306,0.9299,0.9281,0.9271,0.9258,0.9251,0.9259,0.9223,0.9232,0.9218,0.9218,0.921,0.9211,0.9174,0.9205,0.9205,0.9205,0.9205,0,0.941,0.939,0.9382,0.9368,0.9346,0.9341,0.9319,0.9312,0.93,0.9284,0.9283,0.9268,0.926,0.9244,0.9239,0.9216,0.9212,0.9207,0.9206,0.9207,0.9208,0.92,0.9202,0.9204,0.9204,0.9204,0.9204,0,0.9384,0.9377,0.9353,0.9338,0.9334,0.9319,0.9306,0.9293,0.9286,0.9267,0.9262,0.9251,0.9233,0.9225,0.9201,0.9198,0.9172,0.9172,0.9177,0.9176,0.9163,0.9164,0.912,0.9114,0.9148,0.9148,0.9148,0,0.9364,0.9349,0.9334,0.9324,0.9316,0.9299,0.9289,0.9283,0.9272,0.9255,0.9244,0.9225,0.921,0.918,0.917,0.9152,0.9152,0.9138,0.9149,0.9151,0.9151,0.9152,0.9151,0.9135,0.9135,0.9135,0.9135,0,0.933,0.9328,0.9313,0.9297,0.9284,0.9271,0.9258,0.925,0.9243,0.923,0.9212,0.92,0.9177,0.9159,0.9141,0.9132,0.9132,0.9131,0.9127,0.9128,0.9131,0.9129,0.9171,0.9132,0.9132,0.9132,0.9133,0.9133,0.9306,0.9293,0.9281,0.9264,0.9255,0.9243,0.923,0.9222,0.9207,0.9188,0.9186,0.9166,0.9153,0.9129,0.9119,0.9103,0.9107,0.9101,0.9099,0.9098,0.9097,0.9134,0.91,0.91,0.91,0.91,0.91,0,0.9272,0.9264,0.9249,0.9232,0.9219,0.9222,0.9208,0.9197,0.9179,0.9167,0.9153,0.9132,0.9114,0.9103,0.9086,0.9075,0.9075,0.9071,0.9071,0.9069,0.9095,0.91,0.9071,0.9071,0.9071,0.9071,0.9071,0.9071,0.9253,0.9231,0.9228,0.9201,0.9194,0.9175,0.9167,0.9156,0.9147,0.9123,0.9109,0.9103,0.9091,0.9073,0.9057,0.9054,0.9047,0.9043,0.904,0.9064,0.9067,0.907,0.9075,0.9042,0.9042,0.9016,0.9016,0.9016]},{"header":{"parameterUnit":"m.s-1","parameterCategory":1,"la1":30.2991,"la2":30.254,"lo1":-89.0895,"lo2":-89.0444,"dy":0.0017,"dx":0.0017,"nx":28,"ny":28,"refTime":"2025-09-05T21:00:00:Z","depth":0,"parameterNumber":3,"parameterNumberName":"V-component_of_WINDS"},"data":[0,0,0,0,0,0,0,0,0,0,0,0,0,0,0,0,0,0,0,0,0,0,0,0,0,0,0,0,0,0,0,0,0,0,0,0,0,0,0,0,0,0,0,0,0,0,0,0,0,0,0,0,0,0,0,0,0,0,-1.869,-1.8691,0,-1.8719,-1.872,-1.872,-1.8709,-1.8709,-1.8708,-1.8707,-1.8734,-1.8736,-1.8737,0,0,0,0,0,0,0,0,0,0,0,0,0,-1.8626,-1.8627,-1.869,-1.8691,-1.8691,-1.8719,-1.872,-1.872,-1.8709,-1.8709,-1.8708,-1.8707,-1.8734,-1.8736,-1.8737,0,0,0,0,0,0,0,0,0,0,0,0,0,-1.8654,-1.8627,-1.869,-1.8689,-1.869,-1.8719,-1.872,-1.872,-1.871,-1.8709,-1.8708,-1.8707,-1.8733,-1.8735,-1.8737,-1.8769,0,0,-1.8743,-1.8744,0,0,0,0,0,0,0,0,-1.8652,-1.8656,-1.8689,-1.8689,-1.869,-1.871,-1.8707,-1.8736,-1.871,-1.8702,-1.8707,-1.8706,-1.8727,-1.8729,-1.8737,-1.877,-1.8771,-1.8744,-1.8745,-1.8746,-1.8746,0,0,0,0,0,0,0,-1.865,-1.8655,-1.8702,-1.869,-1.869,-1.8687,-1.869,-1.8712,-1.8719,-1.8702,-1.8702,-1.8705,-1.8727,-1.8735,-1.8737,-1.8772,-1.8744,-1.8745,-1.8747,-1.8747,-1.8835,-1.8836,0,0,0,0,0,0,-1.8649,-1.8653,-1.8701,-1.8703,-1.8668,-1.8689,-1.8692,-1.8704,-1.8719,-1.872,-1.8706,-1.8705,-1.8732,-1.8735,-1.8738,-1.8778,-1.8746,-1.8747,-1.8749,-1.8833,-1.8835,-1.8836,0,0,0,0,0,0,-1.8647,-1.8653,-1.87,-1.8678,-1.8684,-1.8691,-1.8705,-1.8705,-1.8713,-1.8722,-1.8723,-1.8713,-1.8731,-1.8735,-1.8762,-1.8778,-1.8748,-1.875,-1.8832,-1.8834,-1.8835,-1.8856,0,0,0,0,0,0,-1.8645,-1.8652,-1.8665,-1.8678,-1.8685,-1.8723,-1.8706,-1.8707,-1.8717,-1.8716,-1.8729,-1.873,-1.8731,-1.8759,-1.8764,-1.878,-1.8752,-1.8831,-1.8833,-1.8835,-1.8853,-1.8858,-1.8861,0,0,0,0,0,-1.8643,-1.8668,-1.8665,-1.8671,-1.87,-1.8724,-1.8728,-1.8729,-1.8718,-1.8731,-1.8737,-1.873,-1.8776,-1.8762,-1.8767,-1.8785,-1.883,-1.8832,-1.8835,-1.8852,-1.8857,-1.8861,0,0,0,0,0,0,-1.8654,-1.867,-1.8667,-1.8697,-1.871,-1.8722,-1.8738,-1.8734,-1.8749,-1.8747,-1.8747,-1.875,-1.8778,-1.8784,-1.8768,-1.8817,-1.8801,-1.8805,-1.8812,-1.8817,-1.8821,-1.8819,-1.8753,0,0,0,0,0,-1.8661,-1.8679,-1.8691,-1.8717,-1.8724,-1.873,-1.874,-1.874,-1.8753,-1.8758,-1.8765,-1.8778,-1.8795,-1.8806,-1.8823,-1.8854,-1.8858,-1.8869,-1.8873,-1.8876,-1.8879,-1.8898,-1.8904,-1.8844,-1.8844,-1.8844,0,0,-1.8673,-1.8684,-1.8695,-1.872,-1.8729,-1.8749,-1.8734,-1.8755,-1.8769,-1.8761,-1.8787,-1.8793,-1.8807,-1.8837,-1.885,-1.8842,-1.8897,-1.8879,-1.8882,-1.8883,-1.8901,-1.8907,-1.8912,-1.8846,-1.8846,-1.8846,0,0,-1.8707,-1.8716,-1.8739,-1.875,-1.8766,-1.877,-1.8776,-1.879,-1.8794,-1.8821,-1.8815,-1.8832,-1.8862,-1.8872,-1.8881,-1.8921,-1.8916,-1.8926,-1.8947,-1.8965,-1.897,-1.8974,-1.8989,-1.8995,-1.8929,-1.893,-1.893,0,-1.872,-1.8749,-1.8751,-1.8774,-1.8785,-1.878,-1.8803,-1.8813,-1.8833,-1.8841,-1.8832,-1.8871,-1.8879,-1.8912,-1.8922,-1.893,-1.8936,-1.8925,-1.8969,-1.8973,-1.8977,-1.8992,-1.8997,-1.8931,-1.8931,-1.8931,-1.893,0,-1.8766,-1.8787,-1.8804,-1.8825,-1.8838,-1.886,-1.8866,-1.8879,-1.8878,-1.8884,-1.8912,-1.8922,-1.8941,-1.8949,-1.8948,-1.8983,-1.8977,-1.8969,-1.8953,-1.8984,-1.8998,-1.9003,-1.8933,-1.8932,-1.8932,-1.8931,0,0,-1.8806,-1.883,-1.8836,-1.8846,-1.8864,-1.888,-1.8903,-1.8923,-1.8935,-1.8949,-1.8968,-1.8995,-1.8988,-1.8998,-1.8998,-1.9014,-1.9047,-1.9004,-1.9005,-1.9013,-1.9087,-1.9094,-1.91,-1.9044,-1.9045,-1.9045,-1.9086,0,-1.8841,-1.8882,-1.8886,-1.8923,-1.8943,-1.8939,-1.8959,-1.8973,-1.8979,-1.8996,-1.9002,-1.9022,-1.901,-1.9017,-1.9033,-1.904,-1.9062,-1.9037,-1.9062,-1.9063,-1.9059,-1.9107,-1.9114,-1.9152,-1.9092,-1.9093,-1.9093,0,-1.8887,-1.8905,-1.8945,-1.8962,-1.897,-1.8988,-1.9008,-1.9025,-1.904,-1.9044,-1.9057,-1.9055,-1.9079,-1.9063,-1.9096,-1.9079,-1.9089,-1.9095,-1.9096,-1.9099,-1.908,-1.9112,-1.9164,-1.917,-1.9101,-1.9101,-1.91,0,-1.8914,-1.8947,-1.8976,-1.8985,-1.9005,-1.9018,-1.9027,-1.9042,-1.9054,-1.9071,-1.908,-1.9099,-1.9109,-1.9124,-1.9128,-1.9116,-1.9162,-1.9145,-1.9166,-1.9166,-1.9175,-1.9175,-1.9231,-1.9182,-1.9181,-1.9181,-1.9181,0,-1.8953,-1.8978,-1.8989,-1.9006,-1.9034,-1.9038,-1.9065,-1.9073,-1.9087,-1.9106,-1.9103,-1.9121,-1.9125,-1.9144,-1.9147,-1.9175,-1.9179,-1.9183,-1.9184,-1.9184,-1.9183,-1.9191,-1.9188,-1.9183,-1.9182,-1.9182,-1.9182,0,-1.8987,-1.8995,-1.9027,-1.9044,-1.9049,-1.9069,-1.9084,-1.9101,-1.9108,-1.9132,-1.9138,-1.9148,-1.917,-1.9176,-1.9201,-1.9204,-1.9237,-1.9235,-1.9232,-1.9232,-1.9253,-1.9251,-1.9316,-1.9325,-1.9269,-1.9269,-1.927,0,-1.9012,-1.9031,-1.9052,-1.9065,-1.9075,-1.9096,-1.911,-1.9115,-1.9129,-1.9149,-1.9164,-1.9186,-1.9205,-1.924,-1.9249,-1.927,-1.9268,-1.929,-1.9271,-1.9271,-1.927,-1.9269,-1.9271,-1.9293,-1.9294,-1.9294,-1.9295,0,-1.9056,-1.906,-1.9079,-1.9102,-1.9118,-1.9135,-1.9152,-1.9163,-1.917,-1.9186,-1.921,-1.9224,-1.9252,-1.9274,-1.9295,-1.9304,-1.9301,-1.9301,-1.9306,-1.9307,-1.9305,-1.9307,-1.9243,-1.9299,-1.9298,-1.9298,-1.9298,-1.9298,-1.9087,-1.9104,-1.9122,-1.9145,-1.9159,-1.9175,-1.9192,-1.9202,-1.9222,-1.9246,-1.9247,-1.9273,-1.929,-1.9318,-1.9328,-1.9348,-1.9342,-1.935,-1.9352,-1.9354,-1.9357,-1.9302,-1.9352,-1.9352,-1.9352,-1.9351,-1.9351,0,-1.9131,-1.9143,-1.9164,-1.9188,-1.9207,-1.9204,-1.9222,-1.9238,-1.9261,-1.9277,-1.9295,-1.9323,-1.9345,-1.9357,-1.9379,-1.9393,-1.9393,-1.9399,-1.9398,-1.9401,-1.9361,-1.9354,-1.94,-1.94,-1.94,-1.94,-1.94,-1.9399,-1.9156,-1.9187,-1.9193,-1.923,-1.9242,-1.9268,-1.9279,-1.9294,-1.9307,-1.9339,-1.9358,-1.9366,-1.9381,-1.9404,-1.9425,-1.9428,-1.9436,-1.9444,-1.9446,-1.9408,-1.9403,-1.9399,-1.9392,-1.9445,-1.9445,-1.9485,-1.9485,-1.9485]}]]